This is the latest recevied weather packets stored in our database for station/object WD9EKA. If no packets are shown the sender has not sent any weather packets the latest 1 day(s).
| Time | Temp. | Humidity | Pressure | Rain* | Wind** | Luminosity | Snow |
|---|---|---|---|---|---|---|---|
| 1778040694 | 6.11° C | 99% | 1006.4 hPa | 1.27 mm | 0 m/s | - | - |
| 1778039974 | 6.67° C | 99% | 1006.4 hPa | 1.02 mm | 0 m/s | - | - |
| 1778039614 | 6.67° C | 99% | 1006.7 hPa | 0.76 mm | 0 m/s | - | - |
| 1778039253 | 6.11° C | 99% | 1006.5 hPa | 0.76 mm | 0 m/s | - | - |
| 1778038894 | 6.11° C | 99% | 1007 hPa | 0.51 mm | 0 m/s | - | - |
| 1778038534 | 6.11° C | 99% | 1006.8 hPa | 0.51 mm | 0 m/s | - | - |
| 1778038173 | 6.11° C | 99% | 1006.4 hPa | 0.76 mm | 0.45 m/s, 67° | - | - |
| 1778037814 | 6.11° C | 99% | 1006.3 hPa | 0.51 mm | 0 m/s | - | - |
| 1778037453 | 6.67° C | 99% | 1006.3 hPa | 0.51 mm | 0 m/s | - | - |
| 1778037094 | 6.67° C | 99% | 1006.1 hPa | 0.51 mm | 0 m/s | - | - |
| 1778036734 | 6.11° C | 99% | 1006.2 hPa | 0.51 mm | 0 m/s | - | - |
| 1778036374 | 6.67° C | 99% | 1005.7 hPa | 1.02 mm | 0 m/s | - | - |
| 1778036013 | 6.67° C | 99% | 1005.6 hPa | 1.78 mm | 0 m/s | - | - |
| 1778035653 | 6.67° C | 99% | 1005.9 hPa | 2.54 mm | 0 m/s | - | - |
| 1778035293 | 6.67° C | 99% | 1005.7 hPa | 2.79 mm | 0 m/s | - | - |
| 1778034934 | 6.67° C | 99% | 1005.7 hPa | 3.05 mm | 0 m/s | - | - |
| 1778034574 | 6.67° C | 99% | 1005.3 hPa | 2.79 mm | 0 m/s | - | - |
| 1778034213 | 6.67° C | 99% | 1005 hPa | 2.79 mm | 0.89 m/s, 354° | - | - |
| 1778033854 | 6.67° C | 99% | 1004.8 hPa | 2.54 mm | 0.89 m/s, 12° | - | - |
| 1778033493 | 6.67° C | 99% | 1005.4 hPa | 2.79 mm | 0.89 m/s, 64° | - | - |
| 1778033133 | 6.67° C | 99% | 1005.5 hPa | 2.54 mm | 0 m/s | - | - |
| 1778032773 | 7.22° C | 99% | 1005 hPa | 2.29 mm | 0.45 m/s, 242° | - | - |
| 1778032414 | 8.33° C | 99% | 1005.3 hPa | 1.78 mm | 0.45 m/s, 29° | - | - |
| 1778032054 | 8.33° C | 99% | 1005.5 hPa | 2.03 mm | 0 m/s | - | - |
| 1778031694 | 8.33° C | 99% | 1005.1 hPa | 2.03 mm | 0 m/s | - | - |
* Rain latest hour (hover to see other rain measurements)
** Current wind speed in m/s (hover to see current wind gust speed)